UFO 10 (USA 146)

Last updated on Sat Apr 11 2026 00:02:50 GMT+0000 (Coordinated Universal Time)

1 25967U 99063A 26100.09009836 -.00000181 00000+0 00000+0 0 9999 2 25967 9.8527 27.5689 0004313 317.6543 222.6915 1.00275736 96664
UTC large
Height (km)
Speed (km/s)
/
Latitude / Longitude
Inclination (degrees)
Orbital Period (minutes)
Azimuth
Elevation
Range (km)
Doppler Factor

Next 0 passes for location: London (51.5072 / 0.1276)

Sorry there are no passes over London.
UFO 10 (USA 146)